TimeMDT,TemperatureF,Dew PointF,Humidity,Sea Level PressureIn,VisibilityMPH,Wind Direction,Wind SpeedMPH,Gust SpeedMPH,PrecipitationIn,Events,Conditions,WindDirDegrees,DateUTC
12:10 AM,51.8,48.2,88,30.14,10.0,SSE,3.5,-,N/A,,Clear,160,2013-07-28 06:10:00
12:30 AM,51.8,46.4,82,30.14,10.0,SSE,4.6,-,N/A,,Clear,150,2013-07-28 06:30:00
12:50 AM,50.0,46.4,87,30.14,10.0,NW,4.6,-,N/A,,Clear,320,2013-07-28 06:50:00
1:10 AM,50.0,44.6,82,30.14,10.0,North,3.5,-,N/A,,Clear,360,2013-07-28 07:10:00
1:30 AM,48.2,44.6,87,30.14,10.0,Calm,Calm,-,N/A,,Clear,0,2013-07-28 07:30:00
1:50 AM,48.2,44.6,87,30.14,10.0,Calm,Calm,-,N/A,,Clear,0,2013-07-28 07:50:00
2:10 AM,48.2,44.6,87,30.13,10.0,SSW,3.5,-,N/A,,Clear,200,2013-07-28 08:10:00
2:30 AM,48.2,44.6,87,30.12,10.0,Calm,Calm,-,N/A,,Clear,0,2013-07-28 08:30:00
2:50 AM,48.2,42.8,82,30.11,10.0,Calm,Calm,-,N/A,,Clear,0,2013-07-28 08:50:00
3:10 AM,48.2,44.6,87,30.11,10.0,ENE,3.5,-,N/A,,Clear,70,2013-07-28 09:10:00
3:30 AM,46.4,41.0,81,30.11,10.0,Calm,Calm,-,N/A,,Clear,0,2013-07-28 09:30:00
3:50 AM,46.4,41.0,81,30.11,10.0,Calm,Calm,-,N/A,,Clear,0,2013-07-28 09:50:00
4:10 AM,44.6,41.0,87,30.11,10.0,Calm,Calm,-,N/A,,Clear,0,2013-07-28 10:10:00
4:30 AM,44.6,39.2,81,30.10,10.0,Calm,Calm,-,N/A,,Clear,0,2013-07-28 10:30:00
4:50 AM,42.8,39.2,87,30.10,10.0,Calm,Calm,-,N/A,,Clear,0,2013-07-28 10:50:00
5:10 AM,41.0,37.4,87,30.10,10.0,Calm,Calm,-,N/A,,Clear,0,2013-07-28 11:10:00
5:30 AM,39.2,35.6,87,30.11,10.0,Calm,Calm,-,N/A,,Clear,0,2013-07-28 11:30:00
5:50 AM,39.2,35.6,87,30.11,10.0,Calm,Calm,-,N/A,,Clear,0,2013-07-28 11:50:00
6:10 AM,39.2,35.6,87,30.11,10.0,Calm,Calm,-,N/A,,Clear,0,2013-07-28 12:10:00
6:30 AM,39.2,33.8,81,30.11,10.0,Calm,Calm,-,N/A,,Clear,0,2013-07-28 12:30:00
6:50 AM,39.2,35.6,87,30.12,10.0,SW,3.5,-,N/A,,Clear,230,2013-07-28 12:50:00
7:10 AM,41.0,37.4,87,30.12,10.0,Calm,Calm,-,N/A,,Clear,0,2013-07-28 13:10:00
7:30 AM,44.6,41.0,87,30.12,10.0,Calm,Calm,-,N/A,,Clear,0,2013-07-28 13:30:00
7:50 AM,48.2,42.8,82,30.12,10.0,Calm,Calm,-,N/A,,Clear,0,2013-07-28 13:50:00
8:10 AM,50.0,44.6,82,30.11,10.0,Calm,Calm,-,N/A,,Clear,0,2013-07-28 14:10:00
8:30 AM,51.8,46.4,82,30.11,10.0,Calm,Calm,-,N/A,,Clear,0,2013-07-28 14:30:00
8:50 AM,53.6,50.0,88,30.11,10.0,Calm,Calm,-,N/A,,Clear,0,2013-07-28 14:50:00
9:10 AM,57.2,51.8,82,30.11,10.0,NE,3.5,-,N/A,,Clear,50,2013-07-28 15:10:00
9:30 AM,57.2,53.6,88,30.10,10.0,Calm,Calm,-,N/A,,Scattered Clouds,0,2013-07-28 15:30:00
9:50 AM,59.0,55.4,88,30.10,10.0,Calm,Calm,-,N/A,,Mostly Cloudy,0,2013-07-28 15:50:00
10:10 AM,60.8,55.4,82,30.10,10.0,WNW,3.5,-,N/A,,Mostly Cloudy,300,2013-07-28 16:10:00
10:30 AM,60.8,57.2,88,30.09,10.0,Calm,Calm,-,N/A,,Partly Cloudy,0,2013-07-28 16:30:00
10:50 AM,62.6,59.0,88,30.09,10.0,West,5.8,-,N/A,,Partly Cloudy,260,2013-07-28 16:50:00
11:10 AM,64.4,60.8,88,30.09,10.0,WSW,8.1,-,N/A,,Partly Cloudy,240,2013-07-28 17:10:00
11:30 AM,68.0,62.6,83,30.08,10.0,SW,13.8,19.6,N/A,,Scattered Clouds,220,2013-07-28 17:30:00
11:50 AM,68.0,64.4,88,30.08,10.0,SW,12.7,16.1,N/A,,Scattered Clouds,220,2013-07-28 17:50:00
12:10 PM,69.8,64.4,83,30.07,10.0,SSW,15.0,23.0,N/A,,Partly Cloudy,210,2013-07-28 18:10:00
12:30 PM,69.8,64.4,83,30.06,10.0,SSW,10.4,20.7,N/A,,Clear,210,2013-07-28 18:30:00
12:50 PM,73.4,68.0,83,30.06,10.0,SW,6.9,19.6,N/A,,Partly Cloudy,220,2013-07-28 18:50:00
1:10 PM,73.4,68.0,83,30.04,10.0,WSW,12.7,17.3,N/A,,Clear,240,2013-07-28 19:10:00
1:30 PM,71.6,66.2,83,30.04,10.0,West,11.5,20.7,N/A,,Clear,260,2013-07-28 19:30:00
1:50 PM,69.8,66.2,88,30.04,10.0,West,10.4,17.3,N/A,,Scattered Clouds,270,2013-07-28 19:50:00
2:10 PM,69.8,66.2,88,30.04,10.0,West,5.8,-,N/A,,Partly Cloudy,260,2013-07-28 20:10:00
2:30 PM,68.0,64.4,88,30.04,10.0,WNW,5.8,-,N/A,,Clear,300,2013-07-28 20:30:00
2:50 PM,68.0,64.4,88,30.04,10.0,WSW,9.2,-,N/A,,Partly Cloudy,240,2013-07-28 20:50:00
3:10 PM,68.0,62.6,83,30.05,10.0,WSW,4.6,-,N/A,,Partly Cloudy,250,2013-07-28 21:10:00
3:30 PM,66.2,62.6,88,30.06,10.0,SSW,5.8,-,N/A,,Mostly Cloudy,200,2013-07-28 21:30:00
3:50 PM,66.2,62.6,88,30.06,10.0,WSW,16.1,26.5,N/A,,Overcast,240,2013-07-28 21:50:00
4:10 PM,64.4,59.0,83,30.06,10.0,SSW,19.6,33.4,N/A,,Mostly Cloudy,200,2013-07-28 22:10:00
4:30 PM,62.6,57.2,82,30.05,10.0,South,16.1,21.9,N/A,,Mostly Cloudy,180,2013-07-28 22:30:00
4:50 PM,64.4,59.0,83,30.05,10.0,SSE,12.7,-,N/A,,Clear,160,2013-07-28 22:50:00
5:10 PM,66.2,60.8,83,30.08,10.0,South,11.5,21.9,N/A,,Clear,180,2013-07-28 23:10:00
5:30 PM,64.4,59.0,83,30.08,10.0,South,19.6,31.1,N/A,,Clear,190,2013-07-28 23:30:00
5:50 PM,62.6,57.2,82,30.09,10.0,South,13.8,-,N/A,,Clear,170,2013-07-28 23:50:00
6:10 PM,62.6,57.2,82,30.08,10.0,SSW,6.9,-,N/A,,Clear,210,2013-07-29 00:10:00
6:30 PM,62.6,57.2,82,30.08,10.0,SW,6.9,-,N/A,,Clear,230,2013-07-29 00:30:00
6:50 PM,64.4,59.0,83,30.08,10.0,WSW,9.2,17.3,N/A,,Clear,250,2013-07-29 00:50:00
7:10 PM,62.6,59.0,88,30.06,10.0,SSW,5.8,-,N/A,,Partly Cloudy,210,2013-07-29 01:10:00
7:30 PM,62.6,57.2,82,30.06,10.0,SW,6.9,-,N/A,,Partly Cloudy,230,2013-07-29 01:30:00
7:50 PM,62.6,57.2,82,30.06,10.0,SW,8.1,-,N/A,,Clear,230,2013-07-29 01:50:00
8:10 PM,60.8,57.2,88,30.06,10.0,WSW,5.8,-,N/A,,Clear,250,2013-07-29 02:10:00
8:30 PM,59.0,55.4,88,30.06,10.0,SW,5.8,-,N/A,,Clear,230,2013-07-29 02:30:00
8:50 PM,59.0,53.6,82,30.06,10.0,Calm,Calm,-,N/A,,Clear,0,2013-07-29 02:50:00
9:10 PM,55.4,50.0,82,30.06,10.0,Calm,Calm,-,N/A,,Clear,0,2013-07-29 03:10:00
9:30 PM,53.6,48.2,82,30.06,10.0,Calm,Calm,-,N/A,,Clear,0,2013-07-29 03:30:00
9:50 PM,53.6,48.2,82,30.07,10.0,SSW,5.8,-,N/A,,Clear,200,2013-07-29 03:50:00
10:10 PM,55.4,50.0,82,30.07,10.0,SSE,5.8,-,N/A,,Clear,160,2013-07-29 04:10:00
10:30 PM,55.4,50.0,82,30.08,10.0,Calm,Calm,-,N/A,,Clear,0,2013-07-29 04:30:00
10:50 PM,50.0,46.4,87,30.08,10.0,SSW,4.6,-,N/A,,Clear,200,2013-07-29 04:50:00
11:10 PM,48.2,44.6,87,30.09,10.0,North,4.6,-,N/A,,Clear,360,2013-07-29 05:10:00
11:30 PM,46.4,42.8,87,30.09,10.0,SW,3.5,-,N/A,,Clear,220,2013-07-29 05:30:00
11:50 PM,44.6,39.2,81,30.09,10.0,Calm,Calm,-,N/A,,Clear,0,2013-07-29 05:50:00